• In Uzbekistan
  • List of Countries
  • For 7 days
  • Water Temperature
  • Satellite Maps
  • Weather Map
  • Weather Widgets
  • user-avatar
    Login

    Hourly Weather Gweru

    Today, 20 November, Tuesday

    Time Temperature Precipitation Wind Pressure Humidity
    00:00 +20°C° 0 mm 3 mps 645 mmHg 57%
    01:00 +20°C° 0 mm 2 mps 644 mmHg 61%
    02:00 +19°C° 0 mm 2 mps 644 mmHg 65%
    03:00 +19°C° 0 mm 2 mps 644 mmHg 64%
    04:00 +18°C° 0 mm 2 mps 644 mmHg 63%
    05:00 +18°C° 0 mm 2 mps 644 mmHg 61%
    06:00 +20°C° 0 mm 2 mps 644 mmHg 55%
    07:00 +22°C° 0 mm 3 mps 645 mmHg 49%
    08:00 +26°C° 0 mm 3 mps 646 mmHg 42%
    09:00 +29°C° 0 mm 3 mps 647 mmHg 34%
    10:00 +32°C° 0 mm 2 mps 648 mmHg 26%
    11:00 +36°C° 0 mm 1 mps 648 mmHg 18%
    12:00 +36°C° 0 mm 1 mps 647 mmHg 16%
    13:00 +37°C° 0 mm 2 mps 647 mmHg 14%
    14:00 +38°C° 0 mm 2 mps 646 mmHg 13%
    15:00 +37°C° 0 mm 2 mps 645 mmHg 13%
    16:00 +36°C° 0 mm 3 mps 645 mmHg 13%
    17:00 +36°C° 0 mm 3 mps 644 mmHg 13%
    18:00 +33°C° 0 mm 3 mps 644 mmHg 16%
    19:00 +30°C° 0 mm 3 mps 644 mmHg 18%
    20:00 +28°C° 0 mm 3 mps 643 mmHg 21%
    21:00 +27°C° 0 mm 3 mps 643 mmHg 23%
    22:00 +26°C° 0 mm 3 mps 643 mmHg 24%
    23:00 +25°C° 0 mm 3 mps 644 mmHg 26%

    Tomorrow, 21 November, Wednesday

    Time Temperature Precipitation Wind Pressure Humidity
    00:00 +25°C° 0 mm 3 mps 643 mmHg 28%
    01:00 +24°C° 0 mm 3 mps 643 mmHg 29%
    02:00 +23°C° 0 mm 4 mps 642 mmHg 30%
    03:00 +22°C° 0 mm 4 mps 642 mmHg 33%
    04:00 +22°C° 0 mm 4 mps 642 mmHg 35%
    05:00 +21°C° 0 mm 4 mps 642 mmHg 37%
    06:00 +23°C° 0 mm 4 mps 643 mmHg 34%
    07:00 +27°C° 0 mm 4 mps 644 mmHg 32%
    08:00 +29°C° 0 mm 5 mps 645 mmHg 30%
    09:00 +32°C° 0 mm 4 mps 645 mmHg 25%
    10:00 +35°C° 0 mm 3 mps 646 mmHg 20%
    11:00 +38°C° 0 mm 2 mps 646 mmHg 15%
    12:00 +38°C° 0 mm 2 mps 645 mmHg 15%
    13:00 +37°C° 0 mm 1 mps 645 mmHg 14%
    14:00 +39°C° 0 mm 1 mps 644 mmHg 13%
    15:00 +37°C° 0 mm 1 mps 643 mmHg 14%
    16:00 +37°C° 0 mm 2 mps 643 mmHg 14%
    17:00 +36°C° 0 mm 2 mps 642 mmHg 15%
    18:00 +34°C° 0 mm 2 mps 643 mmHg 17%
    19:00 +32°C° 0 mm 2 mps 643 mmHg 19%
    20:00 +30°C° 0 mm 2 mps 643 mmHg 21%
    21:00 +30°C° 0 mm 2 mps 643 mmHg 23%
    22:00 +29°C° 0 mm 3 mps 643 mmHg 24%
    23:00 +29°C° 0 mm 3 mps 644 mmHg 25%

    Day after tomorrow, 22 November, Thursday

    Time Temperature Precipitation Wind Pressure Humidity
    00:00 +28°C° 0 mm 3 mps 643 mmHg 26%
    01:00 +27°C° 0 mm 3 mps 643 mmHg 26%
    02:00 +27°C° 0 mm 3 mps 642 mmHg 27%
    03:00 +26°C° 0 mm 3 mps 642 mmHg 29%
    04:00 +25°C° 0 mm 3 mps 642 mmHg 31%
    05:00 +24°C° 0 mm 2 mps 642 mmHg 33%
    06:00 +26°C° 0 mm 3 mps 643 mmHg 31%
    07:00 +28°C° 0 mm 4 mps 644 mmHg 29%
    08:00 +32°C° 0 mm 4 mps 645 mmHg 27%
    09:00 +34°C° 0 mm 4 mps 645 mmHg 24%
    10:00 +36°C° 0 mm 3 mps 646 mmHg 21%
    11:00 +38°C° 0 mm 3 mps 646 mmHg 18%
    12:00 +37°C° 0 mm 3 mps 645 mmHg 19%
    13:00 +36°C° 0 mm 3 mps 644 mmHg 21%
    14:00 +35°C° 0 mm 3 mps 644 mmHg 22%
    15:00 +34°C° 0.3 mm 3 mps 643 mmHg 26%
    16:00 +33°C° 0.3 mm 3 mps 643 mmHg 30%
    17:00 +30°C° 0.3 mm 3 mps 643 mmHg 33%
    18:00 +29°C° 0.6 mm 3 mps 643 mmHg 41%
    19:00 +27°C° 0.6 mm 2 mps 643 mmHg 49%
    20:00 +25°C° 0.6 mm 2 mps 643 mmHg 56%
    21:00 +24°C° 2.3 mm 3 mps 644 mmHg 61%
    22:00 +23°C° 2.3 mm 4 mps 644 mmHg 67%
    23:00 +22°C° 2.3 mm 4 mps 644 mmHg 72%

    23 November, Friday

    Time Temperature Precipitation Wind Pressure Humidity
    00:00 +21°C° 1.2 mm 4 mps 644 mmHg 74%
    01:00 +21°C° 1.2 mm 4 mps 644 mmHg 76%
    02:00 +21°C° 1.2 mm 4 mps 643 mmHg 77%
    03:00 +20°C° 0.1 mm 4 mps 643 mmHg 78%
    04:00 +20°C° 0.1 mm 4 mps 644 mmHg 78%
    05:00 +20°C° 0.1 mm 4 mps 644 mmHg 79%
    06:00 +21°C° 0.2 mm 4 mps 644 mmHg 75%
    07:00 +22°C° 0.2 mm 4 mps 645 mmHg 71%
    08:00 +22°C° 0.2 mm 4 mps 646 mmHg 67%
    09:00 +22°C° 2.3 mm 4 mps 646 mmHg 69%
    10:00 +22°C° 2.3 mm 3 mps 645 mmHg 71%
    11:00 +22°C° 2.3 mm 3 mps 645 mmHg 73%
    12:00 +22°C° 2 mm 3 mps 645 mmHg 71%
    13:00 +22°C° 2 mm 3 mps 644 mmHg 70%
    14:00 +24°C° 2 mm 3 mps 644 mmHg 69%
    15:00 +23°C° 0.1 mm 4 mps 644 mmHg 69%
    16:00 +23°C° 0.1 mm 4 mps 644 mmHg 69%
    17:00 +23°C° 0.1 mm 4 mps 643 mmHg 68%
    18:00 +22°C° 0.1 mm 5 mps 644 mmHg 73%
    19:00 +21°C° 0.1 mm 5 mps 644 mmHg 78%
    20:00 +20°C° 0.1 mm 6 mps 644 mmHg 83%
    21:00 +20°C° 2 mm 6 mps 645 mmHg 85%
    22:00 +19°C° 2 mm 5 mps 645 mmHg 86%
    23:00 +19°C° 2 mm 5 mps 645 mmHg 87%

    24 November, Saturday

    Time Temperature Precipitation Wind Pressure Humidity
    00:00 +19°C° 3.5 mm 4 mps 645 mmHg 88%
    01:00 +19°C° 3.5 mm 4 mps 644 mmHg 89%
    02:00 +19°C° 3.5 mm 3 mps 644 mmHg 90%
    03:00 +18°C° 1 mm 3 mps 644 mmHg 91%
    04:00 +18°C° 1 mm 2 mps 644 mmHg 91%
    05:00 +18°C° 1 mm 2 mps 645 mmHg 92%
    06:00 +19°C° 0.3 mm 2 mps 645 mmHg 88%
    07:00 +20°C° 0.3 mm 3 mps 646 mmHg 85%
    08:00 +20°C° 0.3 mm 4 mps 646 mmHg 81%
    09:00 +21°C° 0.3 mm 4 mps 646 mmHg 74%
    10:00 +23°C° 0.3 mm 4 mps 646 mmHg 67%
    11:00 +25°C° 0.3 mm 5 mps 647 mmHg 60%
    12:00 +26°C° 0.8 mm 4 mps 646 mmHg 57%
    13:00 +27°C° 0.8 mm 4 mps 646 mmHg 54%
    14:00 +28°C° 0.8 mm 3 mps 645 mmHg 52%
    15:00 +26°C° 2.2 mm 2 mps 645 mmHg 58%
    16:00 +25°C° 2.2 mm 2 mps 644 mmHg 64%
    17:00 +24°C° 2.2 mm 1 mps 644 mmHg 70%
    18:00 +23°C° 1.9 mm 2 mps 644 mmHg 75%
    19:00 +21°C° 1.9 mm 2 mps 644 mmHg 79%
    20:00 +20°C° 1.9 mm 3 mps 645 mmHg 83%
    21:00 +20°C° 1.9 mm 3 mps 645 mmHg 84%
    22:00 +20°C° 1.9 mm 2 mps 645 mmHg 85%
    23:00 +20°C° 1.9 mm 2 mps 645 mmHg 86%

    25 November, Sunday

    Time Temperature Precipitation Wind Pressure Humidity
    00:00 +19°C° 3.5 mm 2 mps 645 mmHg 87%
    01:00 +19°C° 3.5 mm 2 mps 644 mmHg 88%
    02:00 +19°C° 3.5 mm 2 mps 644 mmHg 89%
    03:00 +19°C° 0.8 mm 2 mps 644 mmHg 89%
    04:00 +18°C° 0.8 mm 2 mps 644 mmHg 88%
    05:00 +18°C° 0.8 mm 2 mps 644 mmHg 88%
    06:00 +19°C° 0.3 mm 2 mps 645 mmHg 84%
    07:00 +20°C° 0.3 mm 3 mps 645 mmHg 79%
    08:00 +21°C° 0.3 mm 3 mps 646 mmHg 75%
    09:00 +22°C° 0.2 mm 3 mps 646 mmHg 69%
    10:00 +23°C° 0.2 mm 4 mps 646 mmHg 64%
    11:00 +26°C° 0.2 mm 4 mps 646 mmHg 58%
    12:00 +26°C° 0.8 mm 3 mps 645 mmHg 56%
    13:00 +27°C° 0.8 mm 3 mps 645 mmHg 54%
    14:00 +27°C° 0.8 mm 2 mps 644 mmHg 53%
    15:00 +26°C° 1.4 mm 2 mps 644 mmHg 57%
    16:00 +26°C° 1.4 mm 1 mps 644 mmHg 60%
    17:00 +25°C° 1.4 mm 1 mps 644 mmHg 64%
    18:00 +24°C° 1.2 mm 1 mps 644 mmHg 69%
    19:00 +23°C° 1.2 mm 1 mps 644 mmHg 74%
    20:00 +22°C° 1.2 mm 1 mps 644 mmHg 79%
    21:00 +21°C° 0.1 mm 1 mps 644 mmHg 81%
    22:00 +21°C° 0.1 mm 1 mps 644 mmHg 82%
    23:00 +19°C° 0.1 mm 2 mps 643 mmHg 84%
    Show more